• In Hungary
  • List of Countries
  • For 7 days
  • Water Temperature
  • Satellite Maps
  • Weather Map
  • News
  • Weather Widgets
  • user-avatar
    Login

    Hourly Weather Verviers

    Today, 20 June, Wednesday

    Time Temperature Precipitation Wind Pressure Humidity
    00:00 +16°C° 0 mm 1 mps 747 mmHg 94%
    01:00 +15°C° 0 mm 1 mps 746 mmHg 94%
    02:00 +15°C° 0 mm 1 mps 746 mmHg 95%
    03:00 +15°C° 0 mm 1 mps 746 mmHg 95%
    04:00 +16°C° 0 mm 1 mps 746 mmHg 93%
    05:00 +18°C° 0 mm 1 mps 746 mmHg 91%
    06:00 +20°C° 0 mm 1 mps 746 mmHg 88%
    07:00 +21°C° 0 mm 1 mps 746 mmHg 81%
    08:00 +21°C° 0 mm 2 mps 746 mmHg 75%
    09:00 +24°C° 0 mm 2 mps 745 mmHg 68%
    10:00 +25°C° 0 mm 2 mps 745 mmHg 65%
    11:00 +26°C° 0 mm 2 mps 745 mmHg 62%
    12:00 +27°C° 0 mm 2 mps 745 mmHg 58%
    13:00 +27°C° 0 mm 2 mps 745 mmHg 59%
    14:00 +27°C° 0 mm 3 mps 744 mmHg 60%
    15:00 +27°C° 0 mm 3 mps 744 mmHg 61%
    16:00 +26°C° 0 mm 3 mps 744 mmHg 66%
    17:00 +25°C° 0 mm 3 mps 743 mmHg 70%
    18:00 +25°C° 0 mm 2 mps 743 mmHg 75%
    19:00 +23°C° 0 mm 2 mps 743 mmHg 81%
    20:00 +20°C° 0 mm 2 mps 743 mmHg 87%
    21:00 +18°C° 0 mm 2 mps 743 mmHg 93%
    22:00 +18°C° 0 mm 2 mps 743 mmHg 94%
    23:00 +17°C° 0 mm 2 mps 743 mmHg 95%

    Tomorrow, 21 June, Thursday

    Time Temperature Precipitation Wind Pressure Humidity
    00:00 +16°C° 0 mm 2 mps 743 mmHg 96%
    01:00 +16°C° 0 mm 2 mps 742 mmHg 97%
    02:00 +16°C° 0 mm 2 mps 742 mmHg 97%
    03:00 +15°C° 0 mm 2 mps 742 mmHg 97%
    04:00 +16°C° 0.1 mm 3 mps 742 mmHg 96%
    05:00 +16°C° 0.1 mm 3 mps 742 mmHg 95%
    06:00 +15°C° 0.1 mm 4 mps 742 mmHg 94%
    07:00 +15°C° 0.1 mm 5 mps 742 mmHg 90%
    08:00 +14°C° 0.1 mm 5 mps 742 mmHg 86%
    09:00 +14°C° 0.1 mm 6 mps 743 mmHg 83%
    10:00 +15°C° 0 mm 6 mps 743 mmHg 73%
    11:00 +16°C° 0 mm 6 mps 744 mmHg 62%
    12:00 +17°C° 0 mm 7 mps 744 mmHg 52%
    13:00 +16°C° 0 mm 7 mps 744 mmHg 52%
    14:00 +16°C° 0 mm 7 mps 744 mmHg 52%
    15:00 +16°C° 0 mm 7 mps 745 mmHg 52%
    16:00 +15°C° 0 mm 6 mps 745 mmHg 56%
    17:00 +14°C° 0 mm 6 mps 745 mmHg 60%
    18:00 +13°C° 0 mm 5 mps 746 mmHg 65%
    19:00 +12°C° 0 mm 5 mps 746 mmHg 70%
    20:00 +10°C° 0 mm 4 mps 747 mmHg 74%
    21:00 +8°C° 0 mm 4 mps 747 mmHg 79%
    22:00 +8°C° 0 mm 3 mps 747 mmHg 81%
    23:00 +8°C° 0 mm 3 mps 747 mmHg 83%

    Day after tomorrow, 22 June, Friday

    Time Temperature Precipitation Wind Pressure Humidity
    00:00 +7°C° 0 mm 3 mps 747 mmHg 85%
    01:00 +7°C° 0 mm 3 mps 747 mmHg 85%
    02:00 +7°C° 0 mm 3 mps 747 mmHg 84%
    03:00 +7°C° 0 mm 3 mps 747 mmHg 84%
    04:00 +7°C° 0 mm 4 mps 747 mmHg 81%
    05:00 +8°C° 0 mm 4 mps 747 mmHg 78%
    06:00 +10°C° 0 mm 5 mps 747 mmHg 75%
    07:00 +10°C° 0 mm 5 mps 747 mmHg 74%
    08:00 +12°C° 0 mm 5 mps 747 mmHg 72%
    09:00 +13°C° 0 mm 5 mps 747 mmHg 71%
    10:00 +13°C° 0 mm 5 mps 747 mmHg 70%
    11:00 +14°C° 0 mm 5 mps 747 mmHg 68%
    12:00 +14°C° 0 mm 5 mps 747 mmHg 67%
    13:00 +14°C° 0.1 mm 5 mps 747 mmHg 67%
    14:00 +14°C° 0.1 mm 5 mps 747 mmHg 68%
    15:00 +15°C° 0.1 mm 5 mps 747 mmHg 68%
    16:00 +14°C° 0.1 mm 5 mps 747 mmHg 70%
    17:00 +14°C° 0.1 mm 5 mps 747 mmHg 73%
    18:00 +13°C° 0.1 mm 4 mps 748 mmHg 76%
    19:00 +12°C° 0 mm 4 mps 748 mmHg 80%
    20:00 +11°C° 0 mm 3 mps 748 mmHg 85%
    21:00 +9°C° 0 mm 2 mps 748 mmHg 90%
    22:00 +9°C° 0 mm 2 mps 748 mmHg 91%
    23:00 +8°C° 0 mm 2 mps 748 mmHg 93%

    23 June, Saturday

    Time Temperature Precipitation Wind Pressure Humidity
    00:00 +7°C° 0 mm 2 mps 748 mmHg 94%
    01:00 +7°C° 0 mm 2 mps 748 mmHg 95%
    02:00 +6°C° 0 mm 2 mps 748 mmHg 96%
    03:00 +7°C° 0 mm 1 mps 748 mmHg 96%
    04:00 +7°C° 0 mm 2 mps 748 mmHg 93%
    05:00 +8°C° 0 mm 2 mps 748 mmHg 91%
    06:00 +9°C° 0 mm 2 mps 748 mmHg 88%
    07:00 +11°C° 0 mm 3 mps 748 mmHg 83%
    08:00 +12°C° 0 mm 3 mps 748 mmHg 78%
    09:00 +13°C° 0 mm 3 mps 748 mmHg 72%
    10:00 +14°C° 0 mm 3 mps 748 mmHg 70%
    11:00 +14°C° 0 mm 3 mps 748 mmHg 67%
    12:00 +16°C° 0 mm 3 mps 748 mmHg 65%
    13:00 +16°C° 0 mm 3 mps 748 mmHg 65%
    14:00 +17°C° 0 mm 3 mps 748 mmHg 66%
    15:00 +17°C° 0 mm 3 mps 748 mmHg 66%
    16:00 +17°C° 0 mm 3 mps 748 mmHg 68%
    17:00 +17°C° 0 mm 2 mps 748 mmHg 70%
    18:00 +16°C° 0 mm 2 mps 747 mmHg 72%
    19:00 +15°C° 0 mm 2 mps 748 mmHg 78%
    20:00 +13°C° 0 mm 1 mps 748 mmHg 83%
    21:00 +11°C° 0 mm 1 mps 748 mmHg 89%
    22:00 +11°C° 0 mm 1 mps 748 mmHg 90%
    23:00 +10°C° 0 mm 1 mps 748 mmHg 92%

    24 June, Sunday

    Time Temperature Precipitation Wind Pressure Humidity
    00:00 +10°C° 0 mm 1 mps 748 mmHg 93%
    01:00 +10°C° 0 mm 1 mps 748 mmHg 94%
    02:00 +9°C° 0 mm 1 mps 748 mmHg 94%
    03:00 +8°C° 0 mm 0 mps 748 mmHg 95%
    04:00 +9°C° 0 mm 0 mps 748 mmHg 91%
    05:00 +10°C° 0 mm 0 mps 748 mmHg 87%
    06:00 +12°C° 0 mm 0 mps 748 mmHg 84%
    07:00 +14°C° 0 mm 1 mps 748 mmHg 77%
    08:00 +16°C° 0 mm 1 mps 748 mmHg 70%
    09:00 +17°C° 0 mm 2 mps 748 mmHg 63%
    10:00 +18°C° 0 mm 2 mps 748 mmHg 62%
    11:00 +19°C° 0 mm 2 mps 748 mmHg 61%
    12:00 +20°C° 0 mm 2 mps 748 mmHg 60%
    13:00 +20°C° 0 mm 3 mps 748 mmHg 60%
    14:00 +20°C° 0 mm 3 mps 748 mmHg 60%
    15:00 +20°C° 0 mm 3 mps 748 mmHg 60%
    16:00 +20°C° 0 mm 3 mps 747 mmHg 63%
    17:00 +19°C° 0 mm 2 mps 747 mmHg 66%
    18:00 +19°C° 0 mm 2 mps 747 mmHg 69%
    19:00 +17°C° 0 mm 2 mps 747 mmHg 74%
    20:00 +15°C° 0 mm 2 mps 748 mmHg 79%
    21:00 +14°C° 0 mm 1 mps 748 mmHg 85%
    22:00 +13°C° 0 mm 1 mps 748 mmHg 86%
    23:00 +13°C° 0 mm 1 mps 748 mmHg 88%

    25 June, Monday

    Time Temperature Precipitation Wind Pressure Humidity
    00:00 +12°C° 0 mm 1 mps 748 mmHg 89%
    01:00 +12°C° 0 mm 1 mps 748 mmHg 90%
    02:00 +11°C° 0 mm 1 mps 748 mmHg 91%
    03:00 +11°C° 0 mm 1 mps 748 mmHg 92%
    04:00 +13°C° 0 mm 1 mps 748 mmHg 87%
    05:00 +14°C° 0 mm 1 mps 748 mmHg 83%
    06:00 +15°C° 0 mm 1 mps 748 mmHg 79%
    07:00 +17°C° 0 mm 2 mps 748 mmHg 73%
    08:00 +19°C° 0 mm 2 mps 748 mmHg 68%
    09:00 +20°C° 0 mm 2 mps 748 mmHg 62%
    10:00 +21°C° 0 mm 3 mps 748 mmHg 60%
    11:00 +22°C° 0 mm 3 mps 748 mmHg 57%
    12:00 +24°C° 0 mm 3 mps 748 mmHg 55%
    13:00 +25°C° 0 mm 3 mps 748 mmHg 55%
    14:00 +25°C° 0 mm 3 mps 748 mmHg 54%
    15:00 +26°C° 0 mm 3 mps 747 mmHg 54%
    16:00 +25°C° 0 mm 3 mps 747 mmHg 58%
    17:00 +24°C° 0 mm 2 mps 747 mmHg 62%
    18:00 +24°C° 0 mm 2 mps 747 mmHg 67%
    19:00 +21°C° 0 mm 2 mps 747 mmHg 71%
    20:00 +19°C° 0 mm 2 mps 747 mmHg 75%
    21:00 +17°C° 0 mm 2 mps 748 mmHg 79%
    22:00 +16°C° 0 mm 2 mps 747 mmHg 82%
    23:00 +16°C° 0 mm 2 mps 747 mmHg 84%
    Show more